Location: Blienschwiller
(48.3416°N, 7.4182°E)
Time: 08:44:45
(UTC+00:00)

CZ-4C R/B - Pass Details

Date: 18 February 2020
Orbit: 641 x 1360 km, 63.4° (Epoch: 31 March)

Event Time Altitude Azimuth Distance (km) Brightness Sun altitude
Exits shadow 02:16:58 21° 56° (NE) 1,830 4.4 -41.7°
Drops below altitude 10° 02:19:05 10° 48° (NE) 2,597 5.4 -41.4°
Sets 02:21:56 0° 43° (NE) 3,665 6.3 -41.0°
